Location: Unspecified
(0.0000°N, 0.0000°E)
Time: 13:42:49
(UTC+00:00)

Vela 4A - Pass Details

Date: 28 November 2021
Orbit: 58523 x 164212 km, 32.1° (Epoch: 09 January)

Event Time Altitude Azimuth Distance (km) Brightness Sun altitude
Rises 01:06:11 0° 65° (ENE) 96,778 ? -61.4°
Reaches altitude 10° 02:09:06 10° 66° (ENE) 92,178 ? -49.5°
Maximum altitude 10:05:16 90° 152° (SSE) 63,563 ? 57.1°
Drops below altitude 10° 21:44:00 10° 237° (WSW) 75,716 ? -52.9°
Sets 23:18:01 0° 240° (WSW) 81,582 ? -67.3°
